Regional Weather Roundup
Issued by NWS

Home | Current Version | Previous Version | Graphics & Text | Print | Product List | Glossary On
Versions: 1 2 3 4 5 6 7 8 9 10 11 12 13 14 15 16 17 18 19 20 21 22 23 24 25 26 27 28 29 30 31 32 33 34 35 36 37 38 39 40 41 42 43 44 45 46 47 48 49 50
000
ASUS43 KMKX 221300
RWRWI

WISCONSIN REGIONAL WEATHER ROUNDUP
NATIONAL WEATHER SERVICE MILWAUKEE/SULLIVAN WI
700 AM CST WED FEB 22 2017

NOTE: "FAIR" INDICATES FEW OR NO CLOUDS BELOW 12,000 FEET WITH NO
SIGNIFICANT WEATHER AND/OR OBSTRUCTIONS TO VISIBILITY.

WIZ001-002-006>008-014>016-023>028-221400-
NORTHWEST WISCONSIN

CITY           SKY/WX    TMP DP  RH WIND       PRES   REMARKS
SUPERIOR ARPT  CLOUDY    32  32 100 CALM      29.63F FOG
ASHLAND        MOCLDY    34  33  96 CALM      29.63F
HAYWARD        FAIR      31  30  96 CALM      29.61S
SIREN          FOG       33  33  99 CALM      29.63R VSB<1/4
CUMBERLAND     FOG       34  32  93 N5        29.60F VSB 3/4 WCI  30
RICE LAKE      FAIR      36  36 100 CALM      29.60F FOG
CHETEK         MOCLDY    35  35  99 CALM      29.60F
LADYSMITH      FAIR      37  35  92 N6        29.64R WCI  32
EAU CLAIRE     NOT AVBL
MENOMONIE      FAIR      38  35  90 S3        29.60R
NEW RICHMOND   FAIR      36  36 100 N5        29.59S WCI  32
OSCEOLA        NOT AVBL
$$

WIZ003>005-009-010-017-018-221400-
NORTH CENTRAL WISCONSIN

CITY           SKY/WX    TMP DP  RH WIND       PRES   REMARKS
MANITOWISH WTR FAIR      32  32 100 CALM      29.63S
ARBOR VITAE    FAIR      32  31  94 CALM        N/A
WOODRUFF       FAIR      32  31  94 CALM        N/A
RHINELANDER    FAIR      40  36  86 SW5       29.66R
EAGLE RIVER    FAIR      31  30  98 CALM      29.64R
LAND O LAKES   FAIR      32  31  98 SW3       29.65S
PHILLIPS       FAIR      32  32 100 CALM      29.63F
TOMAHAWK       FAIR      33  32  96 CALM      29.67R
MEDFORD        MOCLDY    39  35  83 SE3       29.64F
MERRILL        NOT AVBL
$$

WIZ029-030-035-036-043>047-221400-
CENTRAL WISCONSIN

CITY           SKY/WX    TMP DP  RH WIND       PRES   REMARKS
WAUSAU         FAIR      45  35  68 SW12      29.63F
MOSINEE        PTCLDY    39  37  93 VRB5      29.65F
MARSHFIELD     CLOUDY    41  35  79 S5        29.62F
STEVENS POINT  FAIR      40  36  87 SW5       29.69R
WAUPACA        FAIR      40  38  92 S5        29.68F
WAUTOMA        FAIR      30  29  96 CALM      29.69F
WISC RAPIDS    FAIR      42  37  82 SW6       29.66F
CAMP DOUGLAS   NOT AVBL
$$

WIZ011>013-019>022-031-037>040-048>050-221400-
NORTHEAST WISCONSIN

CITY           SKY/WX    TMP DP  RH WIND       PRES   REMARKS
ANTIGO         FAIR      33  32  95 SW3       29.66S
SHAWANO        FAIR      38  35  89 CALM      29.68F
OCONTO         FAIR      31  29  93 CALM      29.68S
STURGEON BAY   FAIR      34  33  96 SE3       29.70S FOG
GREEN BAY      FAIR      41  39  93 SW5       29.69S
MANITOWOC      FOG       36  36 100 E3        29.71S VSB 1/2
APPLETON       PTCLDY    39  39 100 S6        29.68R WCI  35
CLINTONVILLE   FAIR      34  32  93 CALM      29.69R
OSHKOSH        FAIR      44  41  89 SW10      29.69S
$$

WIZ032>034-041-042-053>061-221400-
SOUTHWEST WISCONSIN

CITY           SKY/WX    TMP DP  RH WIND       PRES   REMARKS
LA CROSSE      FAIR      43  35  73 S10       29.64F
SPARTA         FAIR      36  34  91 CALM      29.67F
VIROQUA        MOCLDY    46  35  67 SW6       29.68S
BOSCOBEL       FAIR      32  30  92 VRB3      29.70F FOG
PRAIRIE DU CHI FAIR      46  34  63 CALM      29.68F
PLATTEVILLE    CLOUDY    41  41 100 SE8       29.73F VSB<1/4
$$

WIZ056-057-062-063-064-067-068-221400-
SOUTH CENTRAL WISCONSIN

CITY           SKY/WX    TMP DP  RH WIND       PRES   REMARKS
REEDSBURG      FAIR      47  44  87 CALM      29.69S
BARABOO/DELLS  FAIR      50  40  69 SW9       29.69S
LONE ROCK      NOT AVBL
MINERAL POINT  SNOW      45  45 100 S7        29.73F VSB 1/4
MADISON        FAIR      47  45  93 S7        29.72F FOG
MIDDLETON      FAIR      50  46  84 SW10      29.72F
WATERTOWN      CLOUDY    49  49 100 SW7       29.73F FOG
MONROE         FOG       50  50 100 SW16      29.75S VSB 1/4
JANESVILLE     FOG       52  52 100 SW7       29.76S VSB 1/2
$$

WIZ051-052-058>065-066-070>072-221400-
SOUTHEAST WISCONSIN

CITY           SKY/WX    TMP DP  RH WIND       PRES   REMARKS
MILWAUKEE      FOG       53  51  93 SW10      29.75F VSB 1/4
WAUKESHA       FOG       50  50 100 SW7       29.76F VSB 1
MILWAUKEE/TIMM CLOUDY    50  48  93 SW8       29.76S FOG
RACINE         FOG       51  50  96 SW6       29.77F VSB 1/2
KENOSHA        FOG       52  51  97 SW12      29.75F VSB 1/4
FOND DU LAC    FAIR      49  44  83 S12       29.71S
SHEBOYGAN      FAIR      47  44  90 SW10      29.71S
WEST BEND      CLOUDY    46  46 100 SW3       29.72F FOG
JUNEAU         LGT RAIN  46  46  98 S14       29.73F VSB<1/4
$$

LSZ147-162-221400-
LAKE SUPERIOR

STATION/POSITION TIME  TEMP    WIND        PRES    WAVE
                       AIR SEA DIR/SP/G            HT/PER
                 (UTC) (F)     (DEG/KT/KT) (MB)    (FT/S)
DEVILS ISLAND    1200   35     240/  5/  6 1004.3R
PORT WING        1140   33     130/  2/  3 1004.1R
SAXON HARBOR     1130   34     300/  1/  3 1003.7R
$$

LMZ867-665-643>646-221400-
LAKE MICHIGAN

STATION/POSITION TIME  TEMP    WIND        PRES    WAVE
                       AIR SEA DIR/SP/G            HT/PER
                 (UTC) (F)     (DEG/KT/KT) (MB)    (FT/S)
CHAMBERS ISLAND  1140   45     180/  6/ 11 1005.4R
NORTHPORT PIER   1240   37     170/  3/  7 1005.1F
SISTER BAY       1205   36     140/  8/  9   N/A
ALGOMA LAKESHORE 1140          220/  7/ 10   N/A
KEWAUNEE LAKESHO 1230   37      CALM  /  3 1005.4F
SHEBOYGAN LAKESH 1200   40     170/  4/  5 1006.7F
PORT WASHINGTON  1140   39     200/  2/  4 1008.1F
MILWAUKEE LAKESH 1230   51     220/ 10/ 10   N/A
KENOSHA   LAKESH 1200   45     190/  5/  9 1008.8
$$

TC  - TEMPERATURE IN CELSIUS
VSB - VISIBILITY IN STATUTE MILES
WCI - WIND CHILL INDEX
HX  - HEAT INDEX





USA.gov is the U.S. government's official web portal to all federal, state and local government web resources and services.